| time (UTC) | temp F | wind direction | speed knots | gust knots | rain 1hr in | rain 24hr in | rain mn in | humidity % | barometer mb |
| 20260508121549 | 40 | 0 | 0.0 | 1.7 | 0.00 | 0.00 | 0.00 | 92 | 1017.7 |
| 20260508120045 | 38 | 0 | 0.0 | 1.7 | 0.00 | 0.00 | 0.00 | 92 | 1017.6 |
| 20260508114543 | 37 | 0 | 0.0 | 0.9 | 0.00 | 0.00 | 0.00 | 92 | 1017.6 |
| 20260508113047 | 35 | 0 | 0.0 | 0.9 | 0.00 | 0.00 | 0.00 | 92 | 1017.5 |
| 20260508111542 | 34 | 0 | 0.0 | 0.0 | 0.00 | 0.00 | 0.00 | 91 | 1017.3 |
| 20260508110043 | 34 | 0 | 0.0 | 0.0 | 0.00 | 0.00 | 0.00 | 91 | 1017.1 |
| 20260508104535 | 33 | 0 | 0.0 | 0.0 | 0.00 | 0.00 | 0.00 | 90 | 1017.1 |
| 20260508103038 | 34 | 0 | 0.0 | 0.0 | 0.00 | 0.00 | 0.00 | 90 | 1016.9 |
| 20260508101546 | 34 | 0 | 0.0 | 0.0 | 0.00 | 0.00 | 0.00 | 90 | 1016.9 |
| 20260508100044 | 34 | 0 | 0.0 | 0.0 | 0.00 | 0.00 | 0.00 | 90 | 1016.6 |
| 20260508094542 | 34 | 0 | 0.0 | 0.0 | 0.00 | 0.00 | 0.00 | 90 | 1016.6 |
| 20260508093036 | 34 | 0 | 0.0 | 0.0 | 0.00 | 0.00 | 0.00 | 90 | 1016.4 |
| 20260508091536 | 35 | 0 | 0.0 | 0.0 | 0.00 | 0.00 | 0.00 | 89 | 1016.5 |
| 20260508090045 | 35 | 0 | 0.0 | 0.0 | 0.00 | 0.00 | 0.00 | 89 | 1016.3 |
| 20260508084542 | 35 | 0 | 0.0 | 0.0 | 0.00 | 0.00 | 0.00 | 89 | 1016.3 |
| 20260508083041 | 36 | 0 | 0.0 | 0.0 | 0.00 | 0.00 | 0.00 | 89 | 1016.2 |
| 20260508081548 | 36 | 0 | 0.0 | 0.0 | 0.00 | 0.00 | 0.00 | 89 | 1016.1 |
| 20260508080037 | 36 | 89 | 0.9 | 2.6 | 0.00 | 0.00 | 0.00 | 89 | 1016.0 |
| 20260508074544 | 37 | 80 | 0.9 | 2.6 | 0.00 | 0.00 | 0.00 | 88 | 1016.2 |
| 20260508073044 | 37 | 87 | 0.0 | 0.9 | 0.00 | 0.00 | 0.00 | 88 | 1016.1 |
| 20260508071539 | 37 | 0 | 0.0 | 1.7 | 0.00 | 0.00 | 0.00 | 87 | 1015.9 |
| 20260508070054 | 38 | 0 | 0.0 | 0.9 | 0.00 | 0.00 | 0.00 | 87 | 1015.9 |
| 20260508064550 | 38 | 0 | 0.0 | 1.7 | 0.00 | 0.00 | 0.00 | 87 | 1015.9 |
| 20260508063043 | 39 | 58 | 0.0 | 2.6 | 0.00 | 0.00 | 0.00 | 86 | 1016.0 |
| 20260508061541 | 39 | 16 | 0.0 | 2.6 | 0.00 | 0.00 | 0.00 | 86 | 1016.1 |
| 20260508060040 | 39 | 14 | 0.0 | 1.7 | 0.00 | 0.00 | 0.00 | 85 | 1016.1 |
| 20260508054552 | 40 | 75 | 0.0 | 1.7 | 0.00 | 0.00 | 0.00 | 85 | 1016.3 |
| 20260508053049 | 40 | 0 | 0.0 | 1.7 | 0.00 | 0.00 | 0.00 | 84 | 1016.1 |
| 20260508051542 | 41 | 54 | 0.0 | 2.6 | 0.00 | 0.00 | 0.00 | 84 | 1016.0 |
| 20260508050047 | 41 | 360 | 1.7 | 2.6 | 0.00 | 0.00 | 0.00 | 84 | 1015.8 |
| 20260508044600 | 42 | 0 | 0.9 | 1.7 | 0.00 | 0.00 | 0.00 | 83 | 1015.5 |
| 20260508043044 | 42 | 0 | 0.0 | 0.0 | 0.00 | 0.00 | 0.00 | 82 | 1015.5 |
| 20260508041543 | 43 | 0 | 0.0 | 0.0 | 0.00 | 0.00 | 0.00 | 82 | 1015.5 |
| 20260508040043 | 43 | 0 | 0.0 | 0.0 | 0.00 | 0.00 | 0.00 | 82 | 1015.4 |
| 20260508034549 | 44 | 0 | 0.0 | 0.0 | 0.00 | 0.00 | 0.00 | 81 | 1015.3 |
| 20260508033037 | 44 | 0 | 0.0 | 0.9 | 0.00 | 0.00 | 0.00 | 80 | 1015.3 |
| 20260508031537 | 45 | 0 | 0.0 | 0.0 | 0.00 | 0.00 | 0.00 | 78 | 1015.2 |
| 20260508030048 | 45 | 0 | 0.0 | 0.0 | 0.00 | 0.00 | 0.00 | 77 | 1015.1 |
| 20260508024540 | 46 | 0 | 0.0 | 0.0 | 0.00 | 0.02 | 0.00 | 75 | 1014.9 |
| 20260508023043 | 47 | 0 | 0.0 | 0.0 | 0.00 | 0.02 | 0.00 | 73 | 1014.9 |
| 20260508021542 | 47 | 0 | 0.0 | 0.0 | 0.00 | 0.02 | 0.00 | 72 | 1014.5 |
| 20260508020044 | 48 | 0 | 0.0 | 0.0 | 0.00 | 0.02 | 0.00 | 71 | 1014.3 |
| 20260508014536 | 49 | 0 | 0.0 | 0.0 | 0.00 | 0.02 | 0.00 | 70 | 1014.2 |
| 20260508013043 | 49 | 0 | 0.0 | 0.0 | 0.00 | 0.02 | 0.00 | 69 | 1014.0 |
| 20260508011544 | 50 | 0 | 0.0 | 1.7 | 0.00 | 0.02 | 0.00 | 68 | 1013.8 |
| 20260508010041 | 50 | 0 | 0.0 | 4.3 | 0.00 | 0.02 | 0.00 | 67 | 1013.7 |
| 20260508004537 | 51 | 0 | 0.0 | 1.7 | 0.00 | 0.10 | 0.00 | 65 | 1013.6 |
| 20260508003046 | 52 | 0 | 0.0 | 3.5 | 0.00 | 0.10 | 0.00 | 64 | 1013.3 |
| 20260508001543 | 53 | 104 | 0.9 | 7.0 | 0.00 | 0.10 | 0.00 | 62 | 1013.3 |
| 20260508000040 | 53 | 151 | 0.9 | 6.1 | 0.00 | 0.10 | 0.00 | 61 | 1013.2 |
| 20260507234538 | 53 | 102 | 2.6 | 7.0 | 0.00 | 0.10 | 0.00 | 60 | 1013.1 |
| 20260507233036 | 53 | 113 | 1.7 | 8.7 | 0.00 | 0.10 | 0.00 | 61 | 1013.0 |
| 20260507231549 | 54 | 118 | 3.5 | 7.8 | 0.00 | 0.10 | 0.00 | 62 | 1012.8 |
| 20260507230046 | 55 | 36 | 2.6 | 12.2 | 0.00 | 0.10 | 0.00 | 61 | 1012.7 |
| 20260507224542 | 55 | 56 | 2.6 | 11.3 | 0.00 | 0.10 | 0.00 | 58 | 1012.6 |
| 20260507223041 | 55 | 124 | 5.2 | 12.2 | 0.00 | 0.10 | 0.00 | 58 | 1012.5 |
| 20260507221548 | 56 | 129 | 5.2 | 12.2 | 0.00 | 0.10 | 0.00 | 58 | 1012.4 |
| 20260507220035 | 55 | 110 | 5.2 | 12.2 | 0.00 | 0.10 | 0.00 | 58 | 1012.3 |
| 20260507214542 | 54 | 56 | 5.2 | 11.3 | 0.00 | 0.10 | 0.00 | 61 | 1012.2 |
| 20260507213041 | 54 | 113 | 3.5 | 9.6 | 0.00 | 0.10 | 0.00 | 62 | 1012.2 |
| 20260507211548 | 53 | 114 | 3.5 | 12.2 | 0.00 | 0.10 | 0.00 | 61 | 1012.1 |
| 20260507210049 | 54 | 166 | 5.2 | 11.3 | 0.00 | 0.10 | 0.00 | 62 | 1011.8 |
| 20260507204543 | 54 | 180 | 3.5 | 7.8 | 0.00 | 0.10 | 0.00 | 61 | 1011.9 |
| 20260507203057 | 54 | 145 | 3.5 | 10.4 | 0.00 | 0.10 | 0.00 | 62 | 1011.9 |
| 20260507201547 | 54 | 109 | 5.2 | 13.0 | 0.00 | 0.10 | 0.00 | 62 | 1012.3 |
| 20260507200047 | 54 | 116 | 4.3 | 11.3 | 0.00 | 0.10 | 0.00 | 64 | 1012.2 |
| 20260507194545 | 54 | 86 | 5.2 | 11.3 | 0.00 | 0.10 | 0.00 | 65 | 1012.0 |
| 20260507193050 | 55 | 80 | 6.1 | 12.2 | 0.00 | 0.10 | 0.00 | 64 | 1012.2 |
| 20260507191544 | 55 | 180 | 3.5 | 10.4 | 0.00 | 0.10 | 0.00 | 64 | 1012.3 |
| 20260507190043 | 54 | 131 | 3.5 | 10.4 | 0.00 | 0.10 | 0.00 | 64 | 1012.4 |
| 20260507184543 | 53 | 171 | 2.6 | 10.4 | 0.00 | 0.10 | 0.00 | 65 | 1012.7 |
| 20260507183042 | 54 | 160 | 3.5 | 8.7 | 0.00 | 0.10 | 0.00 | 64 | 1012.7 |
| 20260507181543 | 54 | 95 | 4.3 | 9.6 | 0.00 | 0.10 | 0.00 | 66 | 1012.6 |
| 20260507180045 | 54 | 131 | 4.3 | 9.6 | 0.00 | 0.10 | 0.00 | 67 | 1012.6 |
| 20260507174550 | 53 | 100 | 3.5 | 7.8 | 0.00 | 0.10 | 0.00 | 67 | 1012.5 |
| 20260507173045 | 53 | 69 | 2.6 | 8.7 | 0.00 | 0.10 | 0.00 | 67 | 1012.7 |
| 20260507171553 | 54 | 89 | 2.6 | 9.6 | 0.00 | 0.10 | 0.00 | 67 | 1012.3 |
| 20260507170044 | 53 | 175 | 1.7 | 9.6 | 0.00 | 0.10 | 0.00 | 69 | 1012.7 |
| 20260507164600 | 52 | 113 | 5.2 | 10.4 | 0.00 | 0.17 | 0.00 | 72 | 1012.8 |
| 20260507163043 | 51 | 137 | 1.7 | 8.7 | 0.00 | 0.17 | 0.00 | 74 | 1012.9 |
| 20260507161545 | 50 | 120 | 0.9 | 7.8 | 0.00 | 0.17 | 0.00 | 78 | 1013.0 |
| 20260507160040 | 49 | 131 | 1.7 | 7.0 | 0.00 | 0.17 | 0.00 | 81 | 1013.0 |
| 20260507154545 | 48 | 0 | 0.0 | 3.5 | 0.00 | 0.19 | 0.00 | 82 | 1013.2 |
| 20260507153048 | 48 | 162 | 0.9 | 4.3 | 0.00 | 0.19 | 0.00 | 83 | 1013.3 |
| 20260507151544 | 47 | 0 | 1.7 | 4.3 | 0.00 | 0.19 | 0.00 | 84 | 1013.2 |
| 20260507150040 | 47 | 229 | 0.9 | 5.2 | 0.00 | 0.19 | 0.00 | 84 | 1013.4 |
| 20260507144546 | 46 | 216 | 1.7 | 5.2 | 0.00 | 0.20 | 0.00 | 86 | 1013.0 |
| 20260507143045 | 47 | 129 | 0.9 | 3.5 | 0.00 | 0.20 | 0.00 | 87 | 1013.3 |
| 20260507141550 | 46 | 170 | 0.9 | 3.5 | 0.00 | 0.20 | 0.00 | 87 | 1013.4 |
| 20260507140040 | 46 | 158 | 1.7 | 6.1 | 0.00 | 0.20 | 0.00 | 87 | 1013.5 |
| 20260507134547 | 46 | 126 | 0.9 | 3.5 | 0.00 | 0.25 | 0.00 | 88 | 1013.4 |
| 20260507133044 | 46 | 0 | 1.7 | 7.0 | 0.00 | 0.25 | 0.00 | 89 | 1013.6 |
| 20260507131543 | 46 | 147 | 3.5 | 7.8 | 0.00 | 0.25 | 0.00 | 90 | 1013.7 |
| 20260507130044 | 46 | 162 | 1.7 | 4.3 | 0.00 | 0.25 | 0.00 | 91 | 1013.6 |
| 20260507124541 | 46 | 168 | 1.7 | 7.0 | 0.00 | 0.30 | 0.00 | 92 | 1013.9 |
| 20260507123044 | 46 | 193 | 2.6 | 6.1 | 0.00 | 0.30 | 0.00 | 92 | 1013.7 |